Home > Weather > Adamstown > Past weeks

Flag for Pitcairn Islands Weather for the Past 2 Weeks in Adamstown, Pitcairn Islands

Now
76 °F

Overcast.


Feels Like: 75 °F
Forecast: 77 / 81 °F
Wind: 6 mph from Northwest

Location: Rikitea

Current Time: Feb 8, 2016 at 9:02:26 AM

Latest Report: Feb 8, 2016 at 8:00 AM


Visibility: 13 mi

Pressure: 30.01 "Hg

Humidity: 98%

Dew point: 75 °F

Location of AdamstownLocation

Historic Weather in Adamstown — Graph

°F

Adamstown Temperature Yesterday

Maximum temperature yesterday: 83 °F (at 2:00 PM)
Minimum temperature yesterday: 75 °F (at 7:00 AM)
Average temperature yesterday: 79 °F

High & Low Weather Summary for the Past Weeks

 TemperatureHumidityPressure
High84 °F (Feb 1, 2:00 PM)100% (Jan 26, 3:00 AM)30.11 "Hg (Jan 26, 3:00 AM)
Low72 °F (Jan 26, 7:00 AM)64% (Feb 5, 3:00 PM)29.80 "Hg (Jan 24, 6:00 PM)
Average77 °F89%29.98 "Hg
* Reported Jan 24 7:00 AM — Feb 8 7:00 AM, Adamstown, Weather by CustomWeather, © 2016

Note: Actual official high and low records may vary slightly from our data, if they occured in-between our weather recording intervals... More about our weather records

Advertising

Adamstown Weather History for the Previous 24 Hours

 ConditionsComfort  
Time TempWeatherWind HumidityBarometerVisibility
7:00 AM
Mon, Feb 8
74 °FOvercast.7 mph100%29.99 "Hg12 mi
6:00 AM74 °FMild.2 mph99%29.99 "HgN/A
5:00 AM74 °FMild.2 mph96%29.96 "HgN/A
4:00 AM76 °FMild.3 mph99%29.96 "HgN/A
3:00 AM76 °FMild.5 mph93%29.96 "HgN/A
2:00 AM77 °FMild.2 mph90%29.98 "HgN/A
1:00 AM77 °FWarm.3 mph91%30.00 "HgN/A
12:00 AM77 °FWarm.2 mph91%30.01 "HgN/A
11:00 PM
Sun, Feb 7
77 °FMild.3 mph90%30.01 "HgN/A
10:00 PM77 °FMild.2 mph90%30.00 "HgN/A
9:00 PM77 °FWarm.No wind89%29.98 "HgN/A
8:00 PM77 °FWarm.3 mph89%29.98 "HgN/A
6:00 PM79 °FOvercast.2 mph82%29.94 "Hg25 mi
5:00 PM80 °FPartly sunny.3 mph79%29.94 "Hg25 mi
3:00 PM83 °FPassing clouds.6 mph71%29.95 "Hg31 mi
2:00 PM83 °FScattered clouds.3 mph70%29.97 "Hg31 mi
1:00 PM82 °FPartly sunny.3 mph72%29.98 "Hg31 mi
12:00 PM82 °FScattered clouds.6 mph74%29.99 "Hg31 mi
11:00 AM82 °FPassing clouds.10 mph70%30.00 "Hg31 mi
10:00 AM82 °FPassing clouds.3 mph66%30.01 "Hg31 mi
9:00 AM80 °FPassing clouds.3 mph78%30.00 "Hg31 mi
Weather by CustomWeather, © 2016

See weather overviewHow to use our weather pages